Private Wetterstation Wechselburg
Wetterdaten: Dienstag, 19.06.2012
Datum Zeit Temp. +2m Bodentemp. Temp.+5cm Temp. Wind Windchill X Diff Temp. Feuchte +2m Feuchte +5cm Sonnenschein Luftdruck Regen Wind Richtung Richtung Sonnenschein UV Taupunkt Windchill Windben
19.06.2012 00:00 18,9 C 24,3 C 18,9 C 18,5 C 17,7 C 0,0 C 65 % 89 % 0 % 1019,3 hPa 0,0 l/m 0,3 km/h (0 Bft) SO 135 0 min 0,0 UV-I 12,2 C 17,7 C 0,0 km/h (0 Bft)
19.06.2012 00:06 18,7 C 24,3 C 18,8 C 18,3 C 17,5 C 0,0 C 66 % 89 % 0 % 1019,4 hPa 0,0 l/m 0,6 km/h (0 Bft) N 0 0 min 0,0 UV-I 12,2 C 17,5 C 1,9 km/h (1 Bft)
19.06.2012 00:20 18,1 C 24,4 C 18,7 C 17,7 C 16,8 C 0,0 C 67 % 90 % 0 % 1019,4 hPa 0,0 l/m 0,0 km/h (0 Bft) NO 45 0 min 0,0 UV-I 11,9 C 16,8 C 0,0 km/h (0 Bft)
19.06.2012 00:25 17,8 C 24,3 C 18,6 C 17,4 C 16,5 C 0,0 C 68 % 90 % 0 % 1019,8 hPa 0,0 l/m 0,0 km/h (0 Bft) NO 45 0 min 0,0 UV-I 11,8 C 16,5 C 0,0 km/h (0 Bft)
19.06.2012 00:30 17,7 C 24,3 C 18,5 C 17,2 C 16,2 C 0,0 C 69 % 90 % 0 % 1019,8 hPa 0,0 l/m 0,0 km/h (0 Bft) O-SO 112 0 min 0,0 UV-I 11,9 C 16,2 C 0,0 km/h (0 Bft)
19.06.2012 00:35 17,5 C 24,3 C 18,4 C 17,1 C 16,2 C 0,0 C 70 % 90 % 0 % 1019,8 hPa 0,0 l/m 0,0 km/h (0 Bft) O 90 0 min 0,0 UV-I 12,0 C 16,2 C 0,0 km/h (0 Bft)
19.06.2012 00:40 17,4 C 24,3 C 18,5 C 17,0 C 16,2 C 0,0 C 70 % 90 % 0 % 1019,8 hPa 0,0 l/m 0,0 km/h (0 Bft) NW 315 0 min 0,0 UV-I 11,9 C 16,2 C 0,0 km/h (0 Bft)
19.06.2012 00:45 17,2 C 24,3 C 18,3 C 16,9 C 16,2 C 0,0 C 72 % 90 % 0 % 1019,8 hPa 0,0 l/m 0,0 km/h (0 Bft) O 90 0 min 0,0 UV-I 12,1 C 16,2 C 0,0 km/h (0 Bft)
19.06.2012 00:50 17,2 C 24,3 C 18,3 C 16,9 C 16,3 C 0,0 C 73 % 90 % 0 % 1019,8 hPa 0,0 l/m 0,0 km/h (0 Bft) O-NO 67 0 min 0,0 UV-I 12,3 C 16,3 C 0,0 km/h (0 Bft)
19.06.2012 00:55 17,1 C 24,3 C 18,3 C 16,9 C 16,5 C 0,0 C 73 % 90 % 0 % 1019,8 hPa 0,0 l/m 0,0 km/h (0 Bft) N-NW 337 0 min 0,0 UV-I 12,2 C 16,5 C 0,0 km/h (0 Bft)
19.06.2012 01:00 17,1 C 24,3 C 18,3 C 16,9 C 16,6 C 0,0 C 74 % 90 % 0 % 1019,8 hPa 0,0 l/m 0,2 km/h (0 Bft) S-SW 202 0 min 0,0 UV-I 12,4 C 16,6 C 2,4 km/h (1 Bft)
19.06.2012 01:04 17,1 C 24,2 C 18,1 C 17,1 C 17,0 C 0,0 C 74 % 91 % 0 % 1019,9 hPa 0,0 l/m 0,3 km/h (0 Bft) W-SW 247 0 min 0,0 UV-I 12,4 C 17,0 C 0,0 km/h (0 Bft)
19.06.2012 01:09 17,1 C 24,2 C 18,1 C 17,1 C 17,0 C 0,0 C 75 % 91 % 0 % 1019,9 hPa 0,0 l/m 0,5 km/h (0 Bft) W 270 0 min 0,0 UV-I 12,6 C 17,0 C 1,8 km/h (1 Bft)
19.06.2012 01:14 17,1 C 24,2 C 18,1 C 17,0 C 16,9 C 0,0 C 75 % 91 % 0 % 1019,9 hPa 0,0 l/m 0,3 km/h (0 Bft) W-SW 247 0 min 0,0 UV-I 12,6 C 16,9 C 0,0 km/h (0 Bft)
19.06.2012 01:19 17,1 C 24,2 C 18,1 C 17,0 C 16,9 C 0,0 C 75 % 91 % 0 % 1019,9 hPa 0,0 l/m 0,3 km/h (0 Bft) W-SW 247 0 min 0,0 UV-I 12,6 C 16,9 C 0,0 km/h (0 Bft)
19.06.2012 01:25 17,0 C 24,1 C 18,0 C 17,0 C 17,0 C 0,0 C 74 % 91 % 0 % 1020,4 hPa 0,0 l/m 0,0 km/h (0 Bft) SO 135 0 min 0,0 UV-I 12,3 C 17,0 C 0,0 km/h (0 Bft)
19.06.2012 01:30 17,1 C 24,1 C 18,0 C 17,1 C 17,0 C 0,0 C 75 % 91 % 0 % 1020,4 hPa 0,0 l/m 0,0 km/h (0 Bft) O-SO 112 0 min 0,0 UV-I 12,6 C 17,0 C 0,0 km/h (0 Bft)
19.06.2012 01:35 17,0 C 24,1 C 18,0 C 17,0 C 17,0 C 0,0 C 75 % 91 % 0 % 1020,4 hPa 0,0 l/m 0,0 km/h (0 Bft) O-NO 67 0 min 0,0 UV-I 12,5 C 17,0 C 0,0 km/h (0 Bft)
19.06.2012 01:40 17,1 C 24,1 C 18,0 C 17,1 C 17,0 C 0,0 C 75 % 91 % 0 % 1020,4 hPa 0,0 l/m 0,0 km/h (0 Bft) O-NO 67 0 min 0,0 UV-I 12,6 C 17,0 C 0,0 km/h (0 Bft)
19.06.2012 01:45 17,1 C 24,1 C 18,1 C 17,1 C 17,0 C 0,0 C 76 % 91 % 0 % 1020,8 hPa 0,0 l/m 0,0 km/h (0 Bft) O-NO 67 0 min 0,0 UV-I 12,8 C 17,0 C 0,0 km/h (0 Bft)
19.06.2012 01:50 17,1 C 24,1 C 18,1 C 17,1 C 17,0 C 0,0 C 75 % 91 % 0 % 1020,8 hPa 0,0 l/m 0,0 km/h (0 Bft) S-SW 202 0 min 0,0 UV-I 12,6 C 17,0 C 0,0 km/h (0 Bft)
19.06.2012 01:55 17,1 C 24,1 C 18,0 C 17,1 C 17,1 C 0,0 C 75 % 91 % 0 % 1020,8 hPa 0,0 l/m 0,0 km/h (0 Bft) W-SW 247 0 min 0,0 UV-I 12,6 C 17,1 C 0,0 km/h (0 Bft)
19.06.2012 02:00 17,1 C 24,0 C 18,1 C 17,1 C 17,1 C 0,0 C 75 % 91 % 0 % 1020,8 hPa 0,0 l/m 0,0 km/h (0 Bft) W-NW 292 0 min 0,0 UV-I 12,6 C 17,1 C 0,0 km/h (0 Bft)
19.06.2012 02:07 17,1 C 24,0 C 18,0 C 17,1 C 17,1 C 0,0 C 76 % 91 % 0 % 1020,6 hPa 0,0 l/m 0,2 km/h (0 Bft) N 0 0 min 0,0 UV-I 12,8 C 17,1 C 0,0 km/h (0 Bft)
19.06.2012 02:20 17,1 C 24,0 C 18,0 C 17,1 C 17,1 C 0,0 C 76 % 91 % 0 % 1020,6 hPa 0,0 l/m 0,2 km/h (0 Bft) W-SW 247 0 min 0,0 UV-I 12,8 C 17,1 C 0,0 km/h (0 Bft)
19.06.2012 02:25 17,1 C 24,0 C 17,9 C 17,1 C 17,0 C 0,0 C 76 % 91 % 0 % 1020,5 hPa 0,0 l/m 0,0 km/h (0 Bft) W 270 0 min 0,0 UV-I 12,8 C 17,0 C 0,0 km/h (0 Bft)
19.06.2012 02:30 17,1 C 24,0 C 17,9 C 17,1 C 17,0 C 0,0 C 76 % 91 % 0 % 1020,5 hPa 0,0 l/m 0,0 km/h (0 Bft) SW 225 0 min 0,0 UV-I 12,8 C 17,0 C 0,0 km/h (0 Bft)
19.06.2012 02:35 17,1 C 23,9 C 17,9 C 17,0 C 16,9 C 0,0 C 76 % 92 % 0 % 1020,5 hPa 0,0 l/m 0,0 km/h (0 Bft) SW 225 0 min 0,0 UV-I 12,8 C 16,9 C 0,0 km/h (0 Bft)
19.06.2012 02:40 17,1 C 23,9 C 17,9 C 17,0 C 16,9 C 0,0 C 76 % 92 % 0 % 1020,5 hPa 0,0 l/m 0,2 km/h (0 Bft) SW 225 0 min 0,0 UV-I 12,8 C 16,9 C 1,6 km/h (1 Bft)
19.06.2012 02:45 17,0 C 23,9 C 17,9 C 17,0 C 17,0 C 0,0 C 76 % 92 % 0 % 1020,6 hPa 0,0 l/m 0,2 km/h (0 Bft) W-SW 247 0 min 0,0 UV-I 12,7 C 17,0 C 0,0 km/h (0 Bft)
19.06.2012 02:50 17,0 C 23,9 C 17,9 C 17,0 C 17,0 C 0,0 C 77 % 92 % 0 % 1020,6 hPa 0,0 l/m 0,0 km/h (0 Bft) W 270 0 min 0,0 UV-I 12,9 C 17,0 C 0,0 km/h (0 Bft)
19.06.2012 02:55 17,1 C 23,9 C 17,9 C 17,0 C 16,9 C 0,0 C 77 % 92 % 0 % 1020,6 hPa 0,0 l/m 0,0 km/h (0 Bft) W-SW 247 0 min 0,0 UV-I 13,0 C 16,9 C 0,0 km/h (0 Bft)
19.06.2012 03:00 17,0 C 23,9 C 17,8 C 17,0 C 16,9 C 0,0 C 77 % 92 % 0 % 1020,6 hPa 0,0 l/m 0,0 km/h (0 Bft) W-SW 247 0 min 0,0 UV-I 12,9 C 16,9 C 0,0 km/h (0 Bft)
19.06.2012 03:06 17,1 C 23,8 C 17,9 C 17,0 C 16,8 C 0,0 C 77 % 92 % 0 % 1020,9 hPa 0,0 l/m 0,2 km/h (0 Bft) N 0 0 min 0,0 UV-I 13,0 C 16,8 C 0,0 km/h (0 Bft)
19.06.2012 03:20 17,0 C 23,8 C 17,9 C 16,9 C 16,6 C 0,0 C 77 % 92 % 0 % 1020,9 hPa 0,0 l/m 0,0 km/h (0 Bft) NO 45 0 min 0,0 UV-I 12,9 C 16,6 C 0,0 km/h (0 Bft)
19.06.2012 03:25 16,9 C 23,8 C 17,7 C 16,7 C 16,4 C 0,0 C 78 % 92 % 0 % 1021,1 hPa 0,0 l/m 0,0 km/h (0 Bft) O-SO 112 0 min 0,0 UV-I 13,0 C 16,4 C 0,0 km/h (0 Bft)
19.06.2012 03:30 16,8 C 23,8 C 17,7 C 16,7 C 16,4 C 0,0 C 78 % 92 % 0 % 1021,1 hPa 0,0 l/m 0,0 km/h (0 Bft) O-NO 67 0 min 0,0 UV-I 12,9 C 16,4 C 0,0 km/h (0 Bft)
19.06.2012 03:35 16,9 C 23,8 C 17,7 C 16,7 C 16,2 C 0,0 C 79 % 92 % 0 % 1021,1 hPa 0,0 l/m 0,0 km/h (0 Bft) NO 45 0 min 0,0 UV-I 13,2 C 16,2 C 0,0 km/h (0 Bft)
19.06.2012 03:40 16,8 C 23,8 C 17,6 C 16,6 C 16,2 C 0,0 C 79 % 92 % 0 % 1021,1 hPa 0,0 l/m 0,0 km/h (0 Bft) N-NO 22 0 min 0,0 UV-I 13,1 C 16,2 C 0,0 km/h (0 Bft)
19.06.2012 03:45 16,7 C 23,8 C 17,6 C 16,5 C 16,1 C 0,0 C 79 % 92 % 0 % 1020,9 hPa 0,0 l/m 0,0 km/h (0 Bft) O-NO 67 0 min 0,0 UV-I 13,0 C 16,1 C 0,0 km/h (0 Bft)
19.06.2012 03:50 16,7 C 23,8 C 17,6 C 16,5 C 16,1 C 0,0 C 80 % 92 % 0 % 1020,9 hPa 0,0 l/m 0,0 km/h (0 Bft) O-NO 67 0 min 0,0 UV-I 13,2 C 16,1 C 0,0 km/h (0 Bft)
19.06.2012 03:55 16,5 C 23,8 C 17,7 C 16,3 C 16,0 C 0,0 C 81 % 92 % 0 % 1020,9 hPa 0,0 l/m 0,0 km/h (0 Bft) NO 45 0 min 0,0 UV-I 13,2 C 16,0 C 0,0 km/h (0 Bft)
19.06.2012 04:00 16,5 C 23,8 C 17,6 C 16,3 C 16,0 C 0,0 C 81 % 92 % 0 % 1020,9 hPa 0,0 l/m 0,3 km/h (0 Bft) O-NO 67 0 min 0,0 UV-I 13,2 C 16,0 C 1,8 km/h (1 Bft)
19.06.2012 04:07 16,4 C 23,7 C 17,5 C 16,3 C 16,1 C 0,0 C 81 % 92 % 0 % 1021,1 hPa 0,0 l/m 0,3 km/h (0 Bft) N 0 0 min 0,0 UV-I 13,1 C 16,1 C 0,0 km/h (0 Bft)
19.06.2012 04:20 16,4 C 23,6 C 17,5 C 16,3 C 16,2 C 0,0 C 79 % 92 % 0 % 1021,1 hPa 0,0 l/m 0,2 km/h (0 Bft) O-NO 67 0 min 0,0 UV-I 12,7 C 16,2 C 0,0 km/h (0 Bft)
19.06.2012 04:25 16,4 C 23,6 C 17,4 C 16,3 C 16,2 C 0,0 C 78 % 92 % 0 % 1020,9 hPa 0,0 l/m 0,0 km/h (0 Bft) O-NO 67 0 min 0,0 UV-I 12,6 C 16,2 C 0,0 km/h (0 Bft)
19.06.2012 04:30 16,4 C 23,6 C 17,4 C 16,3 C 16,2 C 0,0 C 78 % 92 % 0 % 1020,9 hPa 0,0 l/m 0,0 km/h (0 Bft) O 90 0 min 0,0 UV-I 12,6 C 16,2 C 0,0 km/h (0 Bft)
19.06.2012 04:35 16,4 C 23,6 C 17,4 C 16,4 C 16,3 C 0,0 C 78 % 92 % 0 % 1020,9 hPa 0,0 l/m 0,0 km/h (0 Bft) O-NO 67 0 min 0,0 UV-I 12,6 C 16,3 C 0,0 km/h (0 Bft)
19.06.2012 04:40 16,4 C 23,6 C 17,5 C 16,3 C 16,2 C 0,0 C 78 % 92 % 0 % 1020,9 hPa 0,0 l/m 0,0 km/h (0 Bft) O-NO 67 0 min 0,0 UV-I 12,6 C 16,2 C 0,0 km/h (0 Bft)
19.06.2012 04:45 16,4 C 23,6 C 17,5 C 16,3 C 16,2 C 0,0 C 77 % 92 % 0 % 1020,9 hPa 0,0 l/m 0,0 km/h (0 Bft) O-NO 67 0 min 0,0 UV-I 12,4 C 16,2 C 0,0 km/h (0 Bft)
19.06.2012 04:50 16,4 C 23,6 C 17,4 C 16,3 C 16,2 C 0,0 C 77 % 92 % 0 % 1020,9 hPa 0,0 l/m 0,0 km/h (0 Bft) O 90 0 min 0,0 UV-I 12,4 C 16,2 C 0,0 km/h (0 Bft)
19.06.2012 04:55 16,4 C 23,6 C 17,4 C 16,3 C 16,2 C 0,0 C 77 % 92 % 0 % 1020,9 hPa 0,0 l/m 0,0 km/h (0 Bft) NO 45 0 min 0,0 UV-I 12,4 C 16,2 C 0,0 km/h (0 Bft)
19.06.2012 05:00 16,3 C 23,6 C 17,3 C 16,3 C 16,2 C 0,0 C 77 % 92 % 0 % 1020,9 hPa 0,0 l/m 0,2 km/h (0 Bft) S-SW 202 0 min 0,0 UV-I 12,3 C 16,2 C 0,0 km/h (0 Bft)
19.06.2012 05:11 16,3 C 23,5 C 17,2 C 16,2 C 16,1 C 0,0 C 77 % 92 % 0 % 1021,2 hPa 0,0 l/m 0,5 km/h (0 Bft) N 0 0 min 0,0 UV-I 12,3 C 16,1 C 0,0 km/h (0 Bft)
19.06.2012 05:20 16,3 C 23,5 C 17,2 C 16,2 C 16,1 C 0,0 C 77 % 92 % 0 % 1021,2 hPa 0,0 l/m 0,2 km/h (0 Bft) O-SO 112 0 min 0,0 UV-I 12,3 C 16,1 C 1,8 km/h (1 Bft)
19.06.2012 05:25 16,1 C 23,5 C 17,2 C 16,1 C 16,1 C 0,0 C 77 % 92 % 0 % 1021,1 hPa 0,0 l/m 0,0 km/h (0 Bft) O 90 0 min 0,0 UV-I 12,1 C 16,1 C 0,0 km/h (0 Bft)
19.06.2012 05:30 16,1 C 23,5 C 17,2 C 16,1 C 16,0 C 0,0 C 77 % 92 % 0 % 1021,1 hPa 0,0 l/m 0,0 km/h (0 Bft) O-NO 67 0 min 0,0 UV-I 12,1 C 16,0 C 0,0 km/h (0 Bft)
19.06.2012 05:35 16,1 C 23,5 C 17,3 C 16,0 C 15,9 C 0,0 C 77 % 92 % 0 % 1021,1 hPa 0,0 l/m 0,0 km/h (0 Bft) O 90 0 min 0,0 UV-I 12,1 C 15,9 C 0,0 km/h (0 Bft)
19.06.2012 05:40 16,0 C 23,5 C 17,1 C 16,0 C 15,9 C 0,0 C 78 % 92 % 0 % 1021,1 hPa 0,0 l/m 0,0 km/h (0 Bft) O 90 0 min 0,0 UV-I 12,2 C 15,9 C 0,0 km/h (0 Bft)
19.06.2012 05:45 16,1 C 23,5 C 17,1 C 16,0 C 15,9 C 0,0 C 78 % 92 % 0 % 1021,2 hPa 0,0 l/m 0,0 km/h (0 Bft) O-NO 67 0 min 0,0 UV-I 12,3 C 15,9 C 0,0 km/h (0 Bft)
19.06.2012 05:50 16,1 C 23,5 C 17,1 C 16,0 C 15,9 C 0,0 C 78 % 92 % 0 % 1021,2 hPa 0,0 l/m 0,0 km/h (0 Bft) O-NO 67 0 min 0,0 UV-I 12,3 C 15,9 C 0,0 km/h (0 Bft)
19.06.2012 05:55 16,0 C 23,5 C 17,1 C 16,0 C 15,9 C 0,0 C 78 % 92 % 0 % 1021,2 hPa 0,0 l/m 0,8 km/h (0 Bft) O 90 0 min 0,0 UV-I 12,2 C 15,9 C 2,1 km/h (1 Bft)
19.06.2012 06:00 15,9 C 23,5 C 17,0 C 15,9 C 15,8 C 0,0 C 79 % 92 % 0 % 1021,2 hPa 0,0 l/m 1,3 km/h (1 Bft) O-SO 112 0 min 0,0 UV-I 12,3 C 15,8 C 1,6 km/h (1 Bft)
19.06.2012 06:11 15,8 C 23,4 C 17,1 C 15,7 C 15,6 C 0,0 C 79 % 92 % 0 % 1020,9 hPa 0,0 l/m 1,6 km/h (1 Bft) N 0 0 min 0,0 UV-I 12,2 C 15,6 C 3,5 km/h (1 Bft)
19.06.2012 06:20 15,7 C 23,4 C 16,9 C 15,7 C 15,6 C 0,0 C 80 % 92 % 0 % 1020,9 hPa 0,0 l/m 2,4 km/h (1 Bft) O 90 0 min 0,0 UV-I 12,3 C 15,6 C 5,0 km/h (1 Bft)
19.06.2012 06:25 15,7 C 23,4 C 17,4 C 15,7 C 15,6 C 0,0 C 80 % 92 % 0 % 1020,6 hPa 0,0 l/m 1,9 km/h (1 Bft) O-NO 67 0 min 0,0 UV-I 12,3 C 15,6 C 0,0 km/h (0 Bft)
19.06.2012 06:30 15,7 C 23,4 C 17,6 C 15,7 C 15,7 C 0,0 C 80 % 92 % 0 % 1020,6 hPa 0,0 l/m 0,8 km/h (0 Bft) NO 45 0 min 0,0 UV-I 12,3 C 15,7 C 0,0 km/h (0 Bft)
19.06.2012 06:35 15,9 C 23,4 C 18,0 C 16,0 C 16,0 C 0,1 C 81 % 92 % 3 % 1020,6 hPa 0,0 l/m 0,3 km/h (0 Bft) O-NO 67 0 min 0,0 UV-I 12,6 C 16,0 C 1,8 km/h (1 Bft)
19.06.2012 06:40 15,9 C 23,3 C 18,4 C 16,1 C 16,1 C 0,2 C 80 % 92 % 5 % 1020,6 hPa 0,0 l/m 0,6 km/h (0 Bft) O-NO 67 0 min 0,0 UV-I 12,5 C 16,1 C 2,3 km/h (1 Bft)
19.06.2012 06:45 16,0 C 23,3 C 18,9 C 16,5 C 16,5 C 0,5 C 80 % 91 % 13 % 1021,0 hPa 0,0 l/m 1,0 km/h (0 Bft) O-NO 67 0 min 0,0 UV-I 12,5 C 16,5 C 0,0 km/h (0 Bft)
19.06.2012 06:50 16,1 C 23,3 C 19,1 C 16,8 C 16,8 C 0,7 C 80 % 91 % 18 % 1021,0 hPa 0,0 l/m 0,5 km/h (0 Bft) W-NW 292 0 min 0,0 UV-I 12,6 C 16,8 C 0,0 km/h (0 Bft)
19.06.2012 06:55 16,3 C 23,2 C 18,5 C 17,1 C 17,1 C 0,8 C 79 % 91 % 21 % 1021,0 hPa 0,0 l/m 0,5 km/h (0 Bft) O-SO 112 0 min 0,0 UV-I 12,6 C 17,1 C 0,0 km/h (0 Bft)
19.06.2012 07:00 16,2 C 23,2 C 18,3 C 17,1 C 17,1 C 0,9 C 78 % 91 % 24 % 1021,0 hPa 0,0 l/m 1,4 km/h (1 Bft) O-NO 67 0 min 0,0 UV-I 12,4 C 17,1 C 4,8 km/h (1 Bft)
19.06.2012 07:11 16,5 C 23,2 C 18,0 C 19,0 C 19,0 C 2,5 C 77 % 91 % 66 % 1020,6 hPa 0,0 l/m 3,4 km/h (1 Bft) N 0 0 min 0,0 UV-I 12,5 C 19,0 C 2,6 km/h (1 Bft)
19.06.2012 07:20 16,7 C 23,2 C 18,2 C 20,0 C 20,0 C 3,3 C 77 % 91 % 87 % 1020,6 hPa 0,0 l/m 3,2 km/h (1 Bft) O-NO 67 9 min 0,0 UV-I 12,6 C 20,0 C 5,6 km/h (1 Bft)
19.06.2012 07:25 16,8 C 23,2 C 18,0 C 19,4 C 19,4 C 2,6 C 77 % 91 % 68 % 1020,7 hPa 0,0 l/m 3,2 km/h (1 Bft) O-NO 67 0 min 0,0 UV-I 12,7 C 19,4 C 6,4 km/h (2 Bft)
19.06.2012 07:30 16,8 C 23,2 C 18,0 C 20,0 C 20,0 C 3,2 C 77 % 91 % 84 % 1020,7 hPa 0,0 l/m 2,9 km/h (1 Bft) O-SO 112 0 min 0,0 UV-I 12,7 C 20,0 C 3,1 km/h (1 Bft)
19.06.2012 07:35 17,1 C 23,1 C 17,9 C 20,4 C 20,4 C 3,3 C 76 % 90 % 87 % 1020,7 hPa 0,0 l/m 3,2 km/h (1 Bft) O-NO 67 5 min 0,0 UV-I 12,8 C 20,4 C 4,2 km/h (1 Bft)
19.06.2012 07:40 17,1 C 23,1 C 17,9 C 20,8 C 20,8 C 3,7 C 76 % 91 % 97 % 1020,7 hPa 0,0 l/m 3,7 km/h (1 Bft) O-NO 67 5 min 0,0 UV-I 12,8 C 20,8 C 3,7 km/h (1 Bft)
19.06.2012 07:45 17,1 C 23,1 C 17,8 C 20,3 C 20,3 C 3,2 C 74 % 90 % 84 % 1021,2 hPa 0,0 l/m 4,2 km/h (1 Bft) O-NO 67 0 min 0,0 UV-I 12,4 C 20,3 C 8,0 km/h (2 Bft)
19.06.2012 07:50 17,0 C 23,1 C 17,7 C 20,0 C 20,0 C 3,0 C 75 % 90 % 79 % 1021,2 hPa 0,0 l/m 4,5 km/h (1 Bft) O 90 0 min 0,0 UV-I 12,5 C 20,0 C 5,1 km/h (1 Bft)
19.06.2012 07:55 16,9 C 23,1 C 17,6 C 19,3 C 19,3 C 2,4 C 75 % 90 % 63 % 1021,2 hPa 0,0 l/m 4,2 km/h (1 Bft) O 90 0 min 0,0 UV-I 12,4 C 19,3 C 5,1 km/h (1 Bft)
19.06.2012 08:00 16,9 C 23,1 C 17,6 C 19,0 C 19,0 C 2,1 C 74 % 90 % 55 % 1021,2 hPa 0,0 l/m 4,8 km/h (1 Bft) O-NO 67 0 min 0,0 UV-I 12,2 C 19,0 C 7,6 km/h (2 Bft)
19.06.2012 08:07 17,0 C 23,1 C 17,7 C 19,2 C 19,2 C 2,2 C 74 % 90 % 58 % 1020,9 hPa 0,0 l/m 4,3 km/h (1 Bft) N 0 0 min 0,0 UV-I 12,3 C 19,2 C 10,8 km/h (2 Bft)
19.06.2012 08:20 17,1 C 23,1 C 17,7 C 19,3 C 19,3 C 2,2 C 72 % 90 % 58 % 1020,9 hPa 0,0 l/m 5,5 km/h (1 Bft) O 90 0 min 0,0 UV-I 12,0 C 19,3 C 7,9 km/h (2 Bft)
19.06.2012 08:25 17,1 C 23,1 C 17,6 C 19,1 C 19,1 C 2,0 C 71 % 90 % 53 % 1021,4 hPa 0,0 l/m 5,3 km/h (1 Bft) O-NO 67 0 min 0,0 UV-I 11,8 C 19,1 C 8,5 km/h (2 Bft)
19.06.2012 08:30 16,9 C 23,1 C 17,5 C 18,8 C 18,8 C 1,9 C 71 % 90 % 50 % 1021,4 hPa 0,0 l/m 5,8 km/h (2 Bft) O-NO 67 0 min 0,0 UV-I 11,6 C 18,8 C 6,8 km/h (2 Bft)
19.06.2012 08:35 16,9 C 23,1 C 17,5 C 18,5 C 18,5 C 1,6 C 72 % 90 % 42 % 1021,4 hPa 0,0 l/m 5,5 km/h (1 Bft) O-NO 67 0 min 0,0 UV-I 11,8 C 18,5 C 8,2 km/h (2 Bft)
19.06.2012 08:40 16,9 C 23,1 C 17,5 C 18,2 C 18,2 C 1,3 C 71 % 90 % 34 % 1021,4 hPa 0,0 l/m 5,8 km/h (2 Bft) O-NO 67 0 min 0,0 UV-I 11,6 C 18,2 C 7,2 km/h (2 Bft)
19.06.2012 08:45 16,8 C 23,1 C 17,4 C 18,0 C 18,0 C 1,2 C 72 % 90 % 32 % 1021,3 hPa 0,0 l/m 5,6 km/h (1 Bft) O-NO 67 0 min 0,0 UV-I 11,7 C 18,0 C 4,0 km/h (1 Bft)
19.06.2012 08:50 16,8 C 23,1 C 17,4 C 18,0 C 18,0 C 1,2 C 73 % 90 % 32 % 1021,3 hPa 0,0 l/m 4,0 km/h (1 Bft) NO 45 0 min 0,0 UV-I 11,9 C 18,0 C 4,7 km/h (1 Bft)
19.06.2012 08:55 16,8 C 23,1 C 17,4 C 18,0 C 18,0 C 1,2 C 72 % 90 % 32 % 1021,3 hPa 0,0 l/m 4,0 km/h (1 Bft) O-NO 67 0 min 0,0 UV-I 11,7 C 18,0 C 4,0 km/h (1 Bft)
19.06.2012 09:00 16,8 C 23,1 C 17,5 C 18,1 C 18,1 C 1,3 C 72 % 90 % 34 % 1021,3 hPa 0,0 l/m 4,7 km/h (1 Bft) O 90 0 min 0,0 UV-I 11,7 C 18,1 C 2,9 km/h (1 Bft)
19.06.2012 09:11 17,0 C 23,0 C 17,4 C 18,7 C 18,7 C 1,7 C 72 % 90 % 45 % 1021,6 hPa 0,0 l/m 5,3 km/h (1 Bft) N 0 0 min 0,0 UV-I 11,9 C 18,7 C 7,7 km/h (2 Bft)
19.06.2012 09:20 17,1 C 23,0 C 17,5 C 18,7 C 18,7 C 1,6 C 72 % 90 % 42 % 1021,6 hPa 0,0 l/m 5,5 km/h (1 Bft) O 90 0 min 0,0 UV-I 12,0 C 18,7 C 5,5 km/h (1 Bft)
19.06.2012 09:25 17,1 C 23,0 C 17,4 C 19,0 C 19,0 C 1,9 C 73 % 89 % 50 % 1021,8 hPa 0,0 l/m 4,5 km/h (1 Bft) O-SO 112 0 min 0,0 UV-I 12,2 C 19,0 C 6,3 km/h (2 Bft)
19.06.2012 09:30 17,2 C 23,0 C 17,5 C 19,1 C 19,1 C 1,9 C 72 % 88 % 50 % 1021,8 hPa 0,0 l/m 4,7 km/h (1 Bft) O-NO 67 0 min 0,0 UV-I 12,1 C 19,1 C 4,2 km/h (1 Bft)
19.06.2012 09:35 17,2 C 23,0 C 17,5 C 19,1 C 19,1 C 1,9 C 73 % 89 % 50 % 1021,8 hPa 0,0 l/m 4,8 km/h (1 Bft) O-NO 67 0 min 0,0 UV-I 12,3 C 19,1 C 3,2 km/h (1 Bft)
19.06.2012 09:40 17,4 C 23,0 C 17,5 C 19,3 C 19,3 C 1,9 C 73 % 89 % 50 % 1021,8 hPa 0,0 l/m 4,0 km/h (1 Bft) O 90 0 min 0,0 UV-I 12,5 C 19,3 C 3,7 km/h (1 Bft)
19.06.2012 09:45 17,4 C 23,0 C 17,5 C 19,6 C 19,6 C 2,2 C 74 % 89 % 58 % 1021,5 hPa 0,0 l/m 3,7 km/h (1 Bft) O 90 0 min 0,0 UV-I 12,7 C 19,6 C 2,4 km/h (1 Bft)
19.06.2012 09:50 17,6 C 23,0 C 17,6 C 19,8 C 19,8 C 2,2 C 73 % 90 % 58 % 1021,5 hPa 0,0 l/m 3,7 km/h (1 Bft) O-NO 67 0 min 0,0 UV-I 12,7 C 19,8 C 5,6 km/h (1 Bft)
19.06.2012 09:55 17,6 C 23,0 C 17,6 C 20,0 C 20,0 C 2,4 C 71 % 88 % 63 % 1021,5 hPa 0,0 l/m 5,1 km/h (1 Bft) O-NO 67 0 min 0,0 UV-I 12,3 C 20,0 C 6,8 km/h (2 Bft)
19.06.2012 10:00 17,7 C 23,0 C 17,7 C 20,1 C 20,1 C 2,4 C 73 % 88 % 63 % 1021,5 hPa 0,0 l/m 5,3 km/h (1 Bft) O-NO 67 0 min 0,0 UV-I 12,8 C 20,1 C 3,4 km/h (1 Bft)
19.06.2012 10:12 18,1 C 23,0 C 17,8 C 20,9 C 20,9 C 2,8 C 69 % 87 % 74 % 1021,5 hPa 0,0 l/m 4,8 km/h (1 Bft) N 0 0 min 0,0 UV-I 12,3 C 20,9 C 10,0 km/h (2 Bft)
19.06.2012 10:20 18,0 C 23,0 C 17,7 C 20,7 C 20,7 C 2,7 C 68 % 86 % 71 % 1021,5 hPa 0,0 l/m 5,8 km/h (2 Bft) O-NO 67 0 min 0,0 UV-I 12,0 C 20,7 C 5,0 km/h (1 Bft)
19.06.2012 10:25 18,1 C 22,9 C 17,8 C 20,5 C 20,5 C 2,4 C 68 % 87 % 63 % 1021,2 hPa 0,0 l/m 6,1 km/h (2 Bft) O-NO 67 0 min 0,0 UV-I 12,1 C 20,5 C 7,7 km/h (2 Bft)
19.06.2012 10:30 18,2 C 22,9 C 17,8 C 20,4 C 20,4 C 2,2 C 67 % 86 % 58 % 1021,2 hPa 0,0 l/m 5,6 km/h (1 Bft) O 90 0 min 0,0 UV-I 12,0 C 20,4 C 5,8 km/h (2 Bft)
19.06.2012 10:35 18,3 C 22,9 C 17,8 C 20,3 C 20,3 C 2,0 C 68 % 86 % 53 % 1021,2 hPa 0,0 l/m 6,1 km/h (2 Bft) O-SO 112 0 min 0,0 UV-I 12,3 C 20,3 C 3,9 km/h (1 Bft)
19.06.2012 10:40 18,3 C 22,9 C 17,8 C 20,5 C 20,5 C 2,2 C 68 % 87 % 58 % 1021,2 hPa 0,0 l/m 5,6 km/h (1 Bft) O-NO 67 0 min 0,0 UV-I 12,3 C 20,5 C 8,0 km/h (2 Bft)
19.06.2012 10:45 18,5 C 22,9 C 17,8 C 20,7 C 20,7 C 2,2 C 68 % 85 % 58 % 1021,2 hPa 0,0 l/m 5,6 km/h (1 Bft) O-SO 112 0 min 0,0 UV-I 12,5 C 20,7 C 10,6 km/h (2 Bft)
19.06.2012 10:50 18,4 C 22,9 C 17,9 C 20,7 C 20,7 C 2,3 C 67 % 84 % 61 % 1021,2 hPa 0,0 l/m 6,8 km/h (2 Bft) O 90 0 min 0,0 UV-I 12,2 C 20,7 C 6,4 km/h (2 Bft)
19.06.2012 10:55 18,6 C 22,9 C 17,9 C 21,0 C 21,0 C 2,4 C 67 % 85 % 63 % 1021,2 hPa 0,0 l/m 6,8 km/h (2 Bft) O 90 0 min 0,0 UV-I 12,3 C 21,0 C 11,1 km/h (2 Bft)
19.06.2012 11:00 18,7 C 22,9 C 18,0 C 21,3 C 21,3 C 2,6 C 68 % 85 % 68 % 1021,2 hPa 0,0 l/m 6,1 km/h (2 Bft) O 90 0 min 0,0 UV-I 12,7 C 21,3 C 7,7 km/h (2 Bft)
19.06.2012 11:06 18,9 C 22,9 C 18,0 C 21,6 C 21,6 C 2,7 C 67 % 85 % 71 % 1021,2 hPa 0,0 l/m 6,3 km/h (2 Bft) N 0 0 min 0,0 UV-I 12,6 C 21,6 C 11,6 km/h (2 Bft)
19.06.2012 11:20 19,1 C 22,8 C 18,3 C 22,0 C 22,0 C 2,9 C 68 % 84 % 76 % 1021,2 hPa 0,0 l/m 6,4 km/h (2 Bft) O-NO 67 0 min 0,0 UV-I 13,1 C 22,0 C 12,2 km/h (2 Bft)
19.06.2012 11:25 19,3 C 22,8 C 18,3 C 22,1 C 22,1 C 2,8 C 68 % 84 % 74 % 1020,9 hPa 0,0 l/m 6,1 km/h (2 Bft) O-NO 67 0 min 0,0 UV-I 13,2 C 22,1 C 6,9 km/h (2 Bft)
19.06.2012 11:30 19,3 C 22,8 C 18,3 C 22,3 C 22,3 C 3,0 C 67 % 84 % 79 % 1020,9 hPa 0,0 l/m 6,1 km/h (2 Bft) O-SO 112 0 min 0,0 UV-I 13,0 C 22,3 C 5,3 km/h (1 Bft)
19.06.2012 11:35 19,3 C 22,9 C 18,4 C 22,4 C 22,4 C 3,1 C 66 % 82 % 82 % 1020,9 hPa 0,0 l/m 7,7 km/h (2 Bft) O 90 0 min 0,0 UV-I 12,8 C 22,4 C 12,6 km/h (3 Bft)
19.06.2012 11:40 19,2 C 22,9 C 18,4 C 22,4 C 22,4 C 3,2 C 68 % 83 % 84 % 1020,9 hPa 0,0 l/m 7,6 km/h (2 Bft) O-NO 67 0 min 0,0 UV-I 13,1 C 22,4 C 7,6 km/h (2 Bft)
19.06.2012 11:45 19,4 C 22,9 C 18,5 C 22,7 C 22,7 C 3,3 C 67 % 83 % 87 % 1020,7 hPa 0,0 l/m 7,1 km/h (2 Bft) O-SO 112 5 min 0,0 UV-I 13,1 C 22,7 C 14,6 km/h (3 Bft)
19.06.2012 11:50 19,7 C 22,9 C 18,7 C 23,1 C 23,1 C 3,4 C 66 % 83 % 89 % 1020,7 hPa 0,0 l/m 6,8 km/h (2 Bft) SO 135 5 min 0,0 UV-I 13,2 C 23,1 C 6,4 km/h (2 Bft)
19.06.2012 11:55 19,7 C 22,9 C 18,7 C 23,4 C 23,4 C 3,7 C 66 % 81 % 97 % 1020,7 hPa 0,0 l/m 6,9 km/h (2 Bft) O-NO 67 5 min 0,0 UV-I 13,2 C 23,4 C 10,0 km/h (2 Bft)
19.06.2012 12:00 19,8 C 22,9 C 18,6 C 23,1 C 23,1 C 3,3 C 66 % 80 % 87 % 1020,7 hPa 0,0 l/m 8,4 km/h (2 Bft) O 90 5 min 0,0 UV-I 13,3 C 23,1 C 12,7 km/h (3 Bft)
19.06.2012 12:11 20,5 C 22,9 C 19,0 C 24,1 C 24,1 C 3,6 C 65 % 82 % 95 % 1020,1 hPa 0,0 l/m 6,1 km/h (2 Bft) N 0 11 min 0,0 UV-I 13,7 C 24,1 C 6,6 km/h (2 Bft)
19.06.2012 12:20 20,7 C 22,9 C 19,1 C 24,4 C 24,4 C 3,7 C 66 % 84 % 97 % 1020,1 hPa 0,0 l/m 6,3 km/h (2 Bft) NO 45 9 min 0,0 UV-I 14,1 C 24,4 C 7,2 km/h (2 Bft)
19.06.2012 12:25 20,8 C 22,8 C 19,1 C 24,7 C 24,7 C 3,9 C 66 % 84 % 100 % 1020,2 hPa 0,0 l/m 6,3 km/h (2 Bft) O 90 5 min 0,0 UV-I 14,2 C 24,7 C 6,3 km/h (2 Bft)
19.06.2012 12:30 21,1 C 22,9 C 19,2 C 24,8 C 24,8 C 3,7 C 65 % 84 % 97 % 1020,2 hPa 0,0 l/m 6,3 km/h (2 Bft) O-SO 112 5 min 0,0 UV-I 14,3 C 24,8 C 9,8 km/h (2 Bft)
19.06.2012 12:35 20,9 C 22,9 C 19,2 C 24,6 C 24,6 C 3,7 C 64 % 81 % 97 % 1020,2 hPa 0,0 l/m 7,6 km/h (2 Bft) O-NO 67 5 min 0,1 UV-I 13,8 C 24,6 C 11,1 km/h (2 Bft)
19.06.2012 12:40 21,1 C 22,9 C 19,3 C 24,5 C 24,5 C 3,4 C 64 % 79 % 89 % 1020,2 hPa 0,0 l/m 8,4 km/h (2 Bft) O-SO 112 5 min 0,0 UV-I 14,0 C 24,5 C 9,0 km/h (2 Bft)
19.06.2012 12:45 21,2 C 22,9 C 19,5 C 24,7 C 24,7 C 3,5 C 63 % 79 % 92 % 1020,2 hPa 0,0 l/m 7,7 km/h (2 Bft) O 90 5 min 0,0 UV-I 13,9 C 24,7 C 10,3 km/h (2 Bft)
19.06.2012 12:50 21,3 C 22,9 C 19,4 C 24,7 C 24,7 C 3,4 C 63 % 79 % 89 % 1020,2 hPa 0,0 l/m 7,7 km/h (2 Bft) O-NO 67 5 min 0,0 UV-I 14,0 C 24,7 C 12,2 km/h (2 Bft)
19.06.2012 12:55 21,6 C 22,9 C 19,7 C 24,9 C 24,9 C 3,3 C 63 % 81 % 87 % 1020,2 hPa 0,0 l/m 7,2 km/h (2 Bft) O-NO 67 5 min 0,0 UV-I 14,2 C 24,9 C 5,5 km/h (1 Bft)
19.06.2012 13:00 21,6 C 22,9 C 19,6 C 25,2 C 25,2 C 3,6 C 63 % 81 % 95 % 1020,2 hPa 0,0 l/m 6,4 km/h (2 Bft) O-SO 112 5 min 0,0 UV-I 14,2 C 25,2 C 7,2 km/h (2 Bft)
19.06.2012 13:11 22,1 C 22,9 C 19,8 C 26,0 C 26,0 C 3,9 C 62 % 81 % 100 % 1019,9 hPa 0,0 l/m 5,0 km/h (1 Bft) N 0 11 min 0,0 UV-I 14,5 C 26,0 C 6,0 km/h (2 Bft)
19.06.2012 13:20 22,1 C 22,9 C 19,9 C 26,0 C 26,0 C 3,9 C 61 % 81 % 100 % 1019,9 hPa 0,0 l/m 5,3 km/h (1 Bft) SO 135 9 min 0,0 UV-I 14,2 C 26,0 C 0,0 km/h (0 Bft)
19.06.2012 13:25 22,2 C 22,9 C 19,7 C 26,5 C 26,5 C 4,3 C 62 % 82 % 100 % 1020,1 hPa 0,0 l/m 4,8 km/h (1 Bft) O-NO 67 5 min 0,0 UV-I 14,6 C 26,5 C 5,8 km/h (2 Bft)
19.06.2012 13:30 22,4 C 23,0 C 19,8 C 26,8 C 26,8 C 4,4 C 62 % 83 % 100 % 1020,1 hPa 0,0 l/m 3,7 km/h (1 Bft) W-NW 292 5 min 0,1 UV-I 14,8 C 26,8 C 2,6 km/h (1 Bft)
19.06.2012 13:35 22,4 C 23,0 C 19,7 C 26,5 C 26,5 C 4,1 C 61 % 83 % 100 % 1020,1 hPa 0,0 l/m 3,9 km/h (1 Bft) O-SO 112 5 min 0,0 UV-I 14,5 C 26,5 C 4,8 km/h (1 Bft)
19.06.2012 13:40 22,4 C 23,0 C 19,7 C 26,2 C 26,2 C 3,8 C 62 % 83 % 100 % 1020,1 hPa 0,0 l/m 4,0 km/h (1 Bft) S 180 5 min 0,0 UV-I 14,8 C 26,2 C 5,3 km/h (1 Bft)
19.06.2012 13:45 22,5 C 23,0 C 19,8 C 26,5 C 26,5 C 4,0 C 61 % 83 % 100 % 1019,6 hPa 0,0 l/m 4,3 km/h (1 Bft) NO 45 5 min 0,0 UV-I 14,6 C 26,5 C 0,0 km/h (0 Bft)
19.06.2012 13:50 22,7 C 23,0 C 19,9 C 26,7 C 26,7 C 4,0 C 61 % 82 % 100 % 1019,6 hPa 0,0 l/m 5,0 km/h (1 Bft) O-NO 67 5 min 0,0 UV-I 14,8 C 26,7 C 5,0 km/h (1 Bft)
19.06.2012 13:55 22,7 C 23,0 C 19,8 C 27,0 C 27,0 C 4,3 C 61 % 83 % 100 % 1019,6 hPa 0,0 l/m 3,7 km/h (1 Bft) O-SO 112 5 min 0,0 UV-I 14,8 C 27,0 C 0,0 km/h (0 Bft)
19.06.2012 14:00 22,9 C 23,0 C 19,8 C 27,3 C 27,3 C 4,4 C 59 % 83 % 100 % 1019,6 hPa 0,0 l/m 4,0 km/h (1 Bft) O-SO 112 5 min 0,0 UV-I 14,5 C 27,3 C 11,7 km/h (2 Bft)
19.06.2012 14:11 23,0 C 23,1 C 20,0 C 27,6 C 27,6 C 4,6 C 59 % 81 % 100 % 1019,7 hPa 0,0 l/m 4,5 km/h (1 Bft) N 0 11 min 0,1 UV-I 14,5 C 27,6 C 10,0 km/h (2 Bft)
19.06.2012 14:20 22,8 C 23,1 C 20,1 C 27,0 C 27,0 C 4,2 C 60 % 82 % 100 % 1019,7 hPa 0,0 l/m 5,8 km/h (2 Bft) O-NO 67 9 min 0,0 UV-I 14,6 C 27,0 C 5,8 km/h (2 Bft)
19.06.2012 14:25 22,9 C 23,1 C 20,1 C 27,2 C 27,2 C 4,3 C 62 % 82 % 100 % 1019,6 hPa 0,0 l/m 5,0 km/h (1 Bft) NW 315 5 min 0,0 UV-I 15,2 C 27,2 C 0,0 km/h (0 Bft)
19.06.2012 14:30 23,2 C 23,0 C 20,0 C 27,4 C 27,4 C 4,2 C 59 % 81 % 100 % 1019,6 hPa 0,0 l/m 4,8 km/h (1 Bft) O-SO 112 5 min 0,0 UV-I 14,7 C 27,4 C 9,2 km/h (2 Bft)
19.06.2012 14:35 22,8 C 23,0 C 20,2 C 26,9 C 26,9 C 4,1 C 61 % 80 % 100 % 1019,6 hPa 0,0 l/m 6,0 km/h (2 Bft) O-NO 67 5 min 0,1 UV-I 14,9 C 26,9 C 8,2 km/h (2 Bft)
19.06.2012 14:40 22,8 C 23,0 C 20,3 C 26,8 C 26,8 C 4,0 C 59 % 79 % 100 % 1019,6 hPa 0,0 l/m 7,6 km/h (2 Bft) O 90 5 min 0,0 UV-I 14,4 C 26,8 C 12,6 km/h (3 Bft)
19.06.2012 14:45 22,8 C 23,0 C 20,4 C 26,7 C 26,7 C 3,9 C 60 % 78 % 100 % 1019,4 hPa 0,0 l/m 7,7 km/h (2 Bft) O-NO 67 5 min 0,0 UV-I 14,6 C 26,7 C 7,6 km/h (2 Bft)
19.06.2012 14:50 22,9 C 23,0 C 20,4 C 26,5 C 26,5 C 3,6 C 61 % 80 % 95 % 1019,4 hPa 0,0 l/m 6,9 km/h (2 Bft) O-SO 112 5 min 0,0 UV-I 15,0 C 26,5 C 7,9 km/h (2 Bft)
19.06.2012 14:55 22,8 C 23,1 C 20,4 C 26,5 C 26,5 C 3,7 C 60 % 78 % 97 % 1019,4 hPa 0,0 l/m 6,9 km/h (2 Bft) NO 45 5 min 0,0 UV-I 14,6 C 26,5 C 8,4 km/h (2 Bft)
19.06.2012 15:00 22,8 C 23,2 C 20,4 C 26,0 C 26,0 C 3,2 C 61 % 80 % 84 % 1019,4 hPa 0,0 l/m 5,8 km/h (2 Bft) W-SW 247 0 min 0,0 UV-I 14,9 C 26,0 C 2,3 km/h (1 Bft)
19.06.2012 15:06 22,9 C 23,2 C 20,2 C 26,1 C 26,1 C 3,2 C 61 % 82 % 84 % 1019,1 hPa 0,0 l/m 4,0 km/h (1 Bft) N 0 0 min 0,0 UV-I 15,0 C 26,1 C 4,0 km/h (1 Bft)
19.06.2012 15:20 23,3 C 23,2 C 20,4 C 26,9 C 26,9 C 3,6 C 59 % 82 % 95 % 1019,1 hPa 0,0 l/m 6,6 km/h (2 Bft) O-NO 67 14 min 0,0 UV-I 14,8 C 26,9 C 11,3 km/h (2 Bft)
19.06.2012 15:25 23,1 C 23,2 C 20,5 C 26,6 C 26,6 C 3,5 C 61 % 80 % 92 % 1019,5 hPa 0,0 l/m 6,6 km/h (2 Bft) O 90 5 min 0,0 UV-I 15,2 C 26,6 C 6,6 km/h (2 Bft)
19.06.2012 15:30 23,0 C 23,3 C 20,5 C 26,2 C 26,2 C 3,2 C 60 % 80 % 84 % 1019,5 hPa 0,0 l/m 6,9 km/h (2 Bft) O 90 0 min 0,0 UV-I 14,8 C 26,2 C 8,7 km/h (2 Bft)
19.06.2012 15:35 22,8 C 23,3 C 20,4 C 25,4 C 25,4 C 2,6 C 61 % 81 % 68 % 1019,5 hPa 0,0 l/m 5,8 km/h (2 Bft) NO 45 0 min 0,0 UV-I 14,9 C 25,4 C 4,8 km/h (1 Bft)
19.06.2012 15:40 22,8 C 23,3 C 20,4 C 25,2 C 25,2 C 2,4 C 60 % 80 % 63 % 1019,5 hPa 0,0 l/m 6,0 km/h (2 Bft) O 90 0 min 0,0 UV-I 14,6 C 25,2 C 8,2 km/h (2 Bft)
19.06.2012 15:45 22,6 C 23,3 C 20,4 C 24,7 C 24,7 C 2,1 C 62 % 80 % 55 % 1019,0 hPa 0,0 l/m 6,3 km/h (2 Bft) O 90 0 min 0,0 UV-I 14,9 C 24,7 C 6,4 km/h (2 Bft)
19.06.2012 15:50 22,7 C 23,3 C 20,4 C 24,7 C 24,7 C 2,0 C 61 % 80 % 53 % 1019,0 hPa 0,0 l/m 6,3 km/h (2 Bft) O 90 0 min 0,0 UV-I 14,8 C 24,7 C 7,1 km/h (2 Bft)
19.06.2012 15:55 22,6 C 23,3 C 20,3 C 24,7 C 24,7 C 2,1 C 62 % 81 % 55 % 1019,0 hPa 0,0 l/m 4,7 km/h (1 Bft) O-SO 112 0 min 0,0 UV-I 14,9 C 24,7 C 5,0 km/h (1 Bft)
19.06.2012 16:00 22,7 C 23,3 C 20,3 C 24,7 C 24,7 C 2,0 C 62 % 82 % 53 % 1019,0 hPa 0,0 l/m 3,7 km/h (1 Bft) O-NO 67 0 min 0,0 UV-I 15,0 C 24,7 C 5,6 km/h (1 Bft)
19.06.2012 16:07 22,7 C 23,3 C 20,2 C 24,8 C 24,8 C 2,1 C 63 % 83 % 55 % 1018,9 hPa 0,0 l/m 3,4 km/h (1 Bft) N 0 0 min 0,0 UV-I 15,3 C 24,8 C 2,6 km/h (1 Bft)
19.06.2012 16:20 22,9 C 23,3 C 20,3 C 26,3 C 26,3 C 3,4 C 62 % 83 % 89 % 1018,9 hPa 0,0 l/m 4,3 km/h (1 Bft) N-NO 22 13 min 0,0 UV-I 15,2 C 26,3 C 4,2 km/h (1 Bft)
19.06.2012 16:25 23,2 C 23,3 C 20,5 C 27,0 C 27,0 C 3,8 C 61 % 82 % 100 % 1018,9 hPa 0,0 l/m 5,0 km/h (1 Bft) O-SO 112 5 min 0,0 UV-I 15,3 C 27,0 C 5,6 km/h (1 Bft)
19.06.2012 16:30 23,1 C 23,3 C 20,4 C 27,0 C 27,0 C 3,9 C 60 % 82 % 100 % 1018,9 hPa 0,0 l/m 4,7 km/h (1 Bft) O-NO 67 5 min 0,0 UV-I 14,9 C 27,0 C 3,7 km/h (1 Bft)
19.06.2012 16:35 23,2 C 23,3 C 20,5 C 27,6 C 27,6 C 4,4 C 60 % 82 % 100 % 1018,9 hPa 0,0 l/m 3,7 km/h (1 Bft) O 90 5 min 0,0 UV-I 15,0 C 27,6 C 3,9 km/h (1 Bft)
19.06.2012 16:40 23,5 C 23,3 C 20,5 C 27,9 C 27,9 C 4,4 C 62 % 82 % 100 % 1018,9 hPa 0,0 l/m 4,2 km/h (1 Bft) O-NO 67 5 min 0,0 UV-I 15,8 C 27,9 C 6,4 km/h (2 Bft)
19.06.2012 16:45 23,4 C 23,3 C 20,6 C 27,5 C 27,5 C 4,1 C 61 % 81 % 100 % 1018,7 hPa 0,0 l/m 7,2 km/h (2 Bft) O 90 5 min 0,0 UV-I 15,4 C 27,5 C 10,1 km/h (2 Bft)
19.06.2012 16:50 23,3 C 23,3 C 20,8 C 27,2 C 27,2 C 3,9 C 60 % 80 % 100 % 1018,7 hPa 0,0 l/m 8,2 km/h (2 Bft) O-NO 67 5 min 0,0 UV-I 15,1 C 27,2 C 9,5 km/h (2 Bft)
19.06.2012 16:55 23,3 C 23,3 C 20,8 C 26,7 C 26,7 C 3,4 C 60 % 78 % 89 % 1018,7 hPa 0,0 l/m 8,5 km/h (2 Bft) O-NO 67 5 min 0,0 UV-I 15,1 C 26,7 C 7,6 km/h (2 Bft)
19.06.2012 17:00 23,2 C 23,3 C 20,8 C 26,8 C 26,8 C 3,6 C 61 % 79 % 95 % 1018,7 hPa 0,0 l/m 7,7 km/h (2 Bft) O-NO 67 5 min 0,0 UV-I 15,3 C 26,8 C 5,8 km/h (2 Bft)
19.06.2012 17:11 23,5 C 23,3 C 21,1 C 26,9 C 26,9 C 3,4 C 61 % 78 % 89 % 1018,4 hPa 0,0 l/m 7,9 km/h (2 Bft) N 0 11 min 0,0 UV-I 15,5 C 26,9 C 6,8 km/h (2 Bft)
19.06.2012 17:20 23,5 C 23,3 C 21,1 C 27,0 C 27,0 C 3,5 C 60 % 79 % 92 % 1018,4 hPa 0,0 l/m 7,4 km/h (2 Bft) O 90 9 min 0,0 UV-I 15,3 C 27,0 C 10,9 km/h (2 Bft)
19.06.2012 17:25 23,3 C 23,3 C 20,9 C 26,2 C 26,2 C 2,9 C 61 % 80 % 76 % 1018,4 hPa 0,0 l/m 6,1 km/h (2 Bft) O-NO 67 0 min 0,0 UV-I 15,3 C 26,2 C 6,3 km/h (2 Bft)
19.06.2012 17:30 23,3 C 23,3 C 20,9 C 26,3 C 26,3 C 3,0 C 61 % 80 % 79 % 1018,4 hPa 0,0 l/m 5,8 km/h (2 Bft) O 90 0 min 0,0 UV-I 15,3 C 26,3 C 6,1 km/h (2 Bft)
19.06.2012 17:35 23,5 C 23,3 C 20,9 C 26,7 C 26,7 C 3,2 C 60 % 78 % 84 % 1018,4 hPa 0,0 l/m 6,4 km/h (2 Bft) O 90 0 min 0,0 UV-I 15,3 C 26,7 C 12,2 km/h (2 Bft)
19.06.2012 17:40 23,4 C 23,3 C 21,1 C 26,5 C 26,5 C 3,1 C 60 % 77 % 82 % 1018,4 hPa 0,0 l/m 7,7 km/h (2 Bft) O-SO 112 0 min 0,0 UV-I 15,2 C 26,5 C 6,9 km/h (2 Bft)
19.06.2012 17:45 23,3 C 23,3 C 21,1 C 26,5 C 26,5 C 3,2 C 61 % 78 % 84 % 1018,2 hPa 0,0 l/m 8,2 km/h (2 Bft) O-NO 67 0 min 0,0 UV-I 15,3 C 26,5 C 3,7 km/h (1 Bft)
19.06.2012 17:50 23,5 C 23,3 C 21,1 C 26,7 C 26,7 C 3,2 C 61 % 78 % 84 % 1018,2 hPa 0,0 l/m 7,1 km/h (2 Bft) O-NO 67 0 min 0,0 UV-I 15,5 C 26,7 C 6,6 km/h (2 Bft)
19.06.2012 17:55 23,4 C 23,3 C 21,2 C 26,6 C 26,6 C 3,2 C 60 % 77 % 84 % 1018,2 hPa 0,0 l/m 8,0 km/h (2 Bft) O 90 0 min 0,0 UV-I 15,2 C 26,6 C 12,4 km/h (3 Bft)
19.06.2012 18:00 23,5 C 23,3 C 21,1 C 26,3 C 26,3 C 2,8 C 60 % 77 % 74 % 1018,2 hPa 0,0 l/m 8,9 km/h (2 Bft) O-SO 112 0 min 0,0 UV-I 15,3 C 26,3 C 9,2 km/h (2 Bft)
19.06.2012 18:11 23,0 C 23,3 C 20,9 C 24,3 C 24,3 C 1,3 C 62 % 80 % 34 % 1018,4 hPa 0,0 l/m 5,5 km/h (1 Bft) N 0 0 min 0,0 UV-I 15,3 C 24,3 C 4,7 km/h (1 Bft)
19.06.2012 18:20 23,0 C 23,3 C 20,9 C 24,5 C 24,5 C 1,5 C 62 % 80 % 39 % 1018,4 hPa 0,0 l/m 5,0 km/h (1 Bft) O 90 0 min 0,0 UV-I 15,3 C 24,5 C 7,6 km/h (2 Bft)
19.06.2012 18:25 23,1 C 23,3 C 20,9 C 24,9 C 24,9 C 1,8 C 62 % 78 % 47 % 1017,6 hPa 0,0 l/m 6,0 km/h (2 Bft) O-SO 112 0 min 0,0 UV-I 15,4 C 24,9 C 6,4 km/h (2 Bft)
19.06.2012 18:30 23,1 C 23,3 C 20,8 C 24,9 C 24,9 C 1,8 C 62 % 80 % 47 % 1017,6 hPa 0,0 l/m 6,3 km/h (2 Bft) O-NO 67 0 min 0,0 UV-I 15,4 C 24,9 C 5,1 km/h (1 Bft)
19.06.2012 18:35 23,1 C 23,3 C 20,9 C 24,8 C 24,8 C 1,7 C 62 % 80 % 45 % 1017,6 hPa 0,0 l/m 5,5 km/h (1 Bft) O 90 0 min 0,0 UV-I 15,4 C 24,8 C 6,1 km/h (2 Bft)
19.06.2012 18:40 23,1 C 23,3 C 20,9 C 24,6 C 24,6 C 1,5 C 63 % 80 % 39 % 1017,6 hPa 0,0 l/m 5,3 km/h (1 Bft) O-NO 67 0 min 0,0 UV-I 15,7 C 24,6 C 4,3 km/h (1 Bft)
19.06.2012 18:45 22,9 C 23,3 C 20,8 C 24,4 C 24,4 C 1,5 C 63 % 80 % 39 % 1017,4 hPa 0,0 l/m 5,3 km/h (1 Bft) O 90 0 min 0,0 UV-I 15,5 C 24,4 C 6,9 km/h (2 Bft)
19.06.2012 18:50 22,8 C 23,3 C 20,9 C 24,4 C 24,4 C 1,6 C 64 % 81 % 42 % 1017,4 hPa 0,0 l/m 4,8 km/h (1 Bft) O 90 0 min 0,0 UV-I 15,6 C 24,4 C 2,6 km/h (1 Bft)
19.06.2012 18:55 22,8 C 23,3 C 20,7 C 24,4 C 24,4 C 1,6 C 64 % 82 % 42 % 1017,4 hPa 0,0 l/m 3,9 km/h (1 Bft) W 270 0 min 0,0 UV-I 15,6 C 24,4 C 3,9 km/h (1 Bft)
19.06.2012 19:00 22,9 C 23,3 C 20,7 C 24,4 C 24,4 C 1,5 C 64 % 82 % 39 % 1017,4 hPa 0,0 l/m 3,2 km/h (1 Bft) NO 45 0 min 0,0 UV-I 15,7 C 24,4 C 0,0 km/h (0 Bft)
19.06.2012 19:11 22,8 C 23,3 C 20,4 C 24,2 C 24,2 C 1,4 C 64 % 84 % 37 % 1017,4 hPa 0,0 l/m 2,1 km/h (1 Bft) N 0 0 min 0,0 UV-I 15,6 C 24,2 C 4,0 km/h (1 Bft)
19.06.2012 19:20 22,7 C 23,3 C 20,5 C 23,8 C 23,8 C 1,1 C 64 % 84 % 29 % 1017,4 hPa 0,0 l/m 3,1 km/h (1 Bft) O-NO 67 0 min 0,0 UV-I 15,5 C 23,8 C 6,1 km/h (2 Bft)
19.06.2012 19:25 22,5 C 23,3 C 20,5 C 23,4 C 23,4 C 0,9 C 65 % 83 % 24 % 1017,2 hPa 0,0 l/m 4,5 km/h (1 Bft) O 90 0 min 0,0 UV-I 15,6 C 23,4 C 5,5 km/h (1 Bft)
19.06.2012 19:30 22,4 C 23,3 C 20,5 C 23,4 C 23,4 C 1,0 C 65 % 82 % 26 % 1017,2 hPa 0,0 l/m 5,1 km/h (1 Bft) O 90 0 min 0,0 UV-I 15,5 C 23,4 C 4,8 km/h (1 Bft)
19.06.2012 19:35 22,4 C 23,3 C 20,7 C 23,4 C 23,4 C 1,0 C 65 % 83 % 26 % 1017,2 hPa 0,0 l/m 4,7 km/h (1 Bft) O-NO 67 0 min 0,0 UV-I 15,5 C 23,4 C 2,4 km/h (1 Bft)
19.06.2012 19:40 22,3 C 23,3 C 20,6 C 23,3 C 23,3 C 1,0 C 66 % 83 % 26 % 1017,2 hPa 0,0 l/m 3,4 km/h (1 Bft) O 90 0 min 0,0 UV-I 15,6 C 23,3 C 3,9 km/h (1 Bft)
19.06.2012 19:45 22,2 C 23,3 C 20,7 C 23,0 C 23,0 C 0,8 C 66 % 84 % 21 % 1017,2 hPa 0,0 l/m 3,1 km/h (1 Bft) O-NO 67 0 min 0,0 UV-I 15,5 C 23,0 C 5,5 km/h (1 Bft)
19.06.2012 19:50 22,0 C 23,3 C 20,7 C 22,8 C 22,8 C 0,8 C 67 % 83 % 21 % 1017,2 hPa 0,0 l/m 3,5 km/h (1 Bft) O 90 0 min 0,0 UV-I 15,6 C 22,8 C 2,9 km/h (1 Bft)
19.06.2012 19:55 21,9 C 23,3 C 20,4 C 22,6 C 22,6 C 0,7 C 67 % 84 % 18 % 1017,2 hPa 0,0 l/m 3,2 km/h (1 Bft) O-NO 67 0 min 0,0 UV-I 15,5 C 22,6 C 3,9 km/h (1 Bft)
19.06.2012 20:00 21,9 C 23,3 C 20,3 C 22,3 C 22,3 C 0,4 C 67 % 84 % 11 % 1017,2 hPa 0,0 l/m 3,1 km/h (1 Bft) O 90 0 min 0,0 UV-I 15,5 C 22,3 C 4,3 km/h (1 Bft)
19.06.2012 20:11 21,5 C 23,3 C 20,1 C 21,5 C 21,5 C 0,0 C 69 % 85 % 0 % 1016,9 hPa 0,0 l/m 3,2 km/h (1 Bft) N 0 0 min 0,0 UV-I 15,6 C 21,5 C 3,1 km/h (1 Bft)
19.06.2012 20:20 21,3 C 23,3 C 19,9 C 21,3 C 21,3 C 0,0 C 69 % 85 % 0 % 1016,9 hPa 0,0 l/m 3,1 km/h (1 Bft) O 90 0 min 0,0 UV-I 15,4 C 21,3 C 4,7 km/h (1 Bft)
19.06.2012 20:25 21,3 C 23,3 C 19,8 C 21,2 C 21,0 C 0,0 C 69 % 86 % 0 % 1016,8 hPa 0,0 l/m 1,6 km/h (1 Bft) O-NO 67 0 min 0,0 UV-I 15,4 C 21,0 C 0,0 km/h (0 Bft)
19.06.2012 20:30 21,1 C 23,3 C 19,7 C 21,0 C 20,9 C 0,0 C 70 % 86 % 0 % 1016,8 hPa 0,0 l/m 1,0 km/h (0 Bft) O-NO 67 0 min 0,0 UV-I 15,4 C 20,9 C 2,4 km/h (1 Bft)
19.06.2012 20:35 20,9 C 23,3 C 19,6 C 20,8 C 20,6 C 0,0 C 70 % 87 % 0 % 1016,8 hPa 0,0 l/m 1,3 km/h (1 Bft) O-NO 67 0 min 0,0 UV-I 15,2 C 20,6 C 1,6 km/h (1 Bft)
19.06.2012 20:40 20,9 C 23,3 C 19,7 C 20,8 C 20,5 C 0,0 C 71 % 87 % 0 % 1016,8 hPa 0,0 l/m 1,4 km/h (1 Bft) O 90 0 min 0,0 UV-I 15,4 C 20,5 C 0,0 km/h (0 Bft)
19.06.2012 20:45 20,7 C 23,3 C 19,6 C 20,5 C 20,2 C 0,0 C 71 % 87 % 0 % 1016,6 hPa 0,0 l/m 0,6 km/h (0 Bft) NO 45 0 min 0,0 UV-I 15,2 C 20,2 C 2,6 km/h (1 Bft)
19.06.2012 20:50 20,6 C 23,3 C 19,5 C 20,4 C 20,1 C 0,0 C 71 % 87 % 0 % 1016,6 hPa 0,0 l/m 0,8 km/h (0 Bft) O-NO 67 0 min 0,0 UV-I 15,2 C 20,1 C 2,6 km/h (1 Bft)
19.06.2012 20:55 20,4 C 23,3 C 19,5 C 20,3 C 20,1 C 0,0 C 72 % 88 % 0 % 1016,6 hPa 0,0 l/m 1,8 km/h (1 Bft) O-NO 67 0 min 0,0 UV-I 15,2 C 20,1 C 3,4 km/h (1 Bft)
19.06.2012 21:00 20,4 C 23,3 C 19,5 C 20,3 C 20,1 C 0,0 C 72 % 87 % 0 % 1016,6 hPa 0,0 l/m 2,9 km/h (1 Bft) O-NO 67 0 min 0,0 UV-I 15,2 C 20,1 C 5,6 km/h (1 Bft)
19.06.2012 21:11 20,4 C 23,3 C 19,3 C 20,3 C 20,1 C 0,0 C 73 % 87 % 0 % 1016,7 hPa 0,0 l/m 3,9 km/h (1 Bft) N 0 0 min 0,0 UV-I 15,4 C 20,1 C 8,0 km/h (2 Bft)
19.06.2012 21:20 20,3 C 23,3 C 19,3 C 20,2 C 20,1 C 0,0 C 73 % 87 % 0 % 1016,7 hPa 0,0 l/m 4,3 km/h (1 Bft) O-SO 112 0 min 0,0 UV-I 15,3 C 20,1 C 5,0 km/h (1 Bft)
19.06.2012 21:25 20,3 C 23,3 C 19,3 C 20,2 C 20,1 C 0,0 C 73 % 86 % 0 % 1016,6 hPa 0,0 l/m 5,3 km/h (1 Bft) O-NO 67 0 min 0,0 UV-I 15,3 C 20,1 C 5,5 km/h (1 Bft)
19.06.2012 21:30 20,3 C 23,3 C 19,3 C 20,2 C 20,1 C 0,0 C 73 % 87 % 0 % 1016,6 hPa 0,0 l/m 5,0 km/h (1 Bft) O-NO 67 0 min 0,0 UV-I 15,3 C 20,1 C 5,1 km/h (1 Bft)
19.06.2012 21:35 20,2 C 23,3 C 19,2 C 20,2 C 20,1 C 0,0 C 73 % 87 % 0 % 1016,6 hPa 0,0 l/m 4,2 km/h (1 Bft) O-NO 67 0 min 0,0 UV-I 15,2 C 20,1 C 3,1 km/h (1 Bft)
19.06.2012 21:40 20,3 C 23,3 C 19,2 C 20,2 C 20,1 C 0,0 C 73 % 87 % 0 % 1016,6 hPa 0,0 l/m 3,5 km/h (1 Bft) O 90 0 min 0,0 UV-I 15,3 C 20,1 C 3,1 km/h (1 Bft)
19.06.2012 21:45 20,1 C 23,3 C 19,2 C 20,0 C 19,9 C 0,0 C 74 % 87 % 0 % 1016,7 hPa 0,0 l/m 2,9 km/h (1 Bft) O 90 0 min 0,0 UV-I 15,3 C 19,9 C 3,5 km/h (1 Bft)
19.06.2012 21:50 20,1 C 23,3 C 19,2 C 20,0 C 19,9 C 0,0 C 74 % 88 % 0 % 1016,7 hPa 0,0 l/m 2,6 km/h (1 Bft) O-NO 67 0 min 0,0 UV-I 15,3 C 19,9 C 1,6 km/h (1 Bft)
19.06.2012 21:55 20,0 C 23,3 C 19,1 C 19,9 C 19,7 C 0,0 C 74 % 88 % 0 % 1016,7 hPa 0,0 l/m 1,8 km/h (1 Bft) NO 45 0 min 0,0 UV-I 15,2 C 19,7 C 0,0 km/h (0 Bft)
19.06.2012 22:00 19,9 C 23,3 C 19,1 C 19,8 C 19,7 C 0,0 C 74 % 88 % 0 % 1016,7 hPa 0,0 l/m 1,0 km/h (0 Bft) O-NO 67 0 min 0,0 UV-I 15,1 C 19,7 C 1,8 km/h (1 Bft)
19.06.2012 22:11 19,8 C 23,3 C 19,0 C 19,8 C 19,7 C 0,0 C 74 % 88 % 0 % 1016,8 hPa 0,0 l/m 3,7 km/h (1 Bft) N 0 0 min 0,0 UV-I 15,0 C 19,7 C 6,1 km/h (2 Bft)
19.06.2012 22:20 19,8 C 23,3 C 19,0 C 19,8 C 19,7 C 0,0 C 75 % 88 % 0 % 1016,8 hPa 0,0 l/m 4,5 km/h (1 Bft) O-NO 67 0 min 0,0 UV-I 15,2 C 19,7 C 5,6 km/h (1 Bft)
19.06.2012 22:25 19,9 C 23,3 C 18,9 C 19,8 C 19,6 C 0,0 C 75 % 88 % 0 % 1016,7 hPa 0,0 l/m 4,7 km/h (1 Bft) O-NO 67 0 min 0,0 UV-I 15,3 C 19,6 C 4,0 km/h (1 Bft)
19.06.2012 22:30 19,7 C 23,3 C 18,9 C 19,6 C 19,5 C 0,0 C 75 % 88 % 0 % 1016,7 hPa 0,0 l/m 4,0 km/h (1 Bft) O 90 0 min 0,0 UV-I 15,1 C 19,5 C 3,5 km/h (1 Bft)
19.06.2012 22:35 19,6 C 23,3 C 18,8 C 19,6 C 19,5 C 0,0 C 76 % 88 % 0 % 1016,7 hPa 0,0 l/m 3,2 km/h (1 Bft) NO 45 0 min 0,0 UV-I 15,2 C 19,5 C 4,0 km/h (1 Bft)
19.06.2012 22:40 19,7 C 23,3 C 18,8 C 19,6 C 19,4 C 0,0 C 76 % 88 % 0 % 1016,7 hPa 0,0 l/m 2,9 km/h (1 Bft) O-NO 67 0 min 0,0 UV-I 15,3 C 19,4 C 0,0 km/h (0 Bft)
19.06.2012 22:45 19,5 C 23,3 C 18,9 C 19,4 C 19,3 C 0,0 C 76 % 89 % 0 % 1016,6 hPa 0,0 l/m 1,0 km/h (0 Bft) O-NO 67 0 min 0,0 UV-I 15,2 C 19,3 C 0,0 km/h (0 Bft)
19.06.2012 22:50 19,5 C 23,3 C 18,8 C 19,4 C 19,1 C 0,0 C 76 % 89 % 0 % 1016,6 hPa 0,0 l/m 0,3 km/h (0 Bft) O-NO 67 0 min 0,0 UV-I 15,2 C 19,1 C 1,8 km/h (1 Bft)
19.06.2012 22:55 19,5 C 23,3 C 18,8 C 19,4 C 19,1 C 0,0 C 76 % 89 % 0 % 1016,6 hPa 0,0 l/m 1,6 km/h (1 Bft) O-NO 67 0 min 0,0 UV-I 15,2 C 19,1 C 4,7 km/h (1 Bft)
19.06.2012 23:00 19,4 C 23,3 C 18,7 C 19,3 C 19,0 C 0,0 C 76 % 89 % 0 % 1016,6 hPa 0,0 l/m 2,4 km/h (1 Bft) O-NO 67 0 min 0,0 UV-I 15,1 C 19,0 C 3,5 km/h (1 Bft)
19.06.2012 23:11 19,2 C 23,3 C 18,7 C 19,1 C 18,9 C 0,0 C 78 % 89 % 0 % 1016,3 hPa 0,0 l/m 3,4 km/h (1 Bft) N 0 0 min 0,0 UV-I 15,3 C 18,9 C 5,3 km/h (1 Bft)
19.06.2012 23:20 19,2 C 23,3 C 18,7 C 19,1 C 18,9 C 0,0 C 78 % 89 % 0 % 1016,3 hPa 0,0 l/m 4,0 km/h (1 Bft) S-SO 157 0 min 0,0 UV-I 15,3 C 18,9 C 5,0 km/h (1 Bft)
19.06.2012 23:25 19,2 C 23,3 C 18,7 C 19,1 C 18,9 C 0,0 C 78 % 90 % 0 % 1016,2 hPa 0,0 l/m 3,5 km/h (1 Bft) O-NO 67 0 min 0,0 UV-I 15,3 C 18,9 C 4,3 km/h (1 Bft)
19.06.2012 23:30 19,2 C 23,3 C 18,7 C 19,1 C 18,8 C 0,0 C 78 % 90 % 0 % 1016,2 hPa 0,0 l/m 3,1 km/h (1 Bft) O-NO 67 0 min 0,0 UV-I 15,3 C 18,8 C 2,9 km/h (1 Bft)
19.06.2012 23:35 19,1 C 23,3 C 18,7 C 19,0 C 18,8 C 0,0 C 78 % 90 % 0 % 1016,2 hPa 0,0 l/m 2,4 km/h (1 Bft) O-NO 67 0 min 0,0 UV-I 15,2 C 18,8 C 2,1 km/h (1 Bft)
19.06.2012 23:40 19,0 C 23,3 C 18,6 C 18,9 C 18,7 C 0,0 C 78 % 90 % 0 % 1016,2 hPa 0,0 l/m 1,8 km/h (1 Bft) O 90 0 min 0,0 UV-I 15,1 C 18,7 C 0,0 km/h (0 Bft)
19.06.2012 23:45 19,1 C 23,3 C 18,5 C 18,9 C 18,6 C 0,0 C 78 % 90 % 0 % 1016,2 hPa 0,0 l/m 0,5 km/h (0 Bft) O-NO 67 0 min 0,0 UV-I 15,2 C 18,6 C 0,0 km/h (0 Bft)
19.06.2012 23:50 19,0 C 23,3 C 18,5 C 18,8 C 18,5 C 0,0 C 79 % 90 % 0 % 1016,2 hPa 0,0 l/m 0,0 km/h (0 Bft) O 90 0 min 0,0 UV-I 15,3 C 18,5 C 0,0 km/h (0 Bft)
19.06.2012 23:55 18,8 C 23,3 C 18,5 C 18,7 C 18,4 C 0,0 C 79 % 90 % 0 % 1016,2 hPa 0,0 l/m 0,6 km/h (0 Bft) O-NO 67 0 min 0,0 UV-I 15,1 C 18,4 C 2,4 km/h (1 Bft)
_ Min-Zeit 06:20 11:20 06:20 06:11 06:11 00:00 14:00 17:40 00:00 23:25 - 00:20 - - - 00:00 08:30 06:11 00:00
Minimum _ 15,7 C 22,8 C 16,9 C 15,7 C 15,6 C 0,0 C 59 % 77 % 0 % 1016,2 hPa - 0,0 km/h (0 Bft) - - - 0,0 UV-I 11,6 C 15,6 C 0,0 km/h (0 Bft)
_ Max-Zeit 16:40 00:20 17:55 16:40 16:40 14:11 03:55 02:35 12:25 09:25 00:00 18:00 - - 15:20 12:35 16:40 16:40 11:45
Maximum _ 23,5 C 24,4 C 21,2 C 27,9 C 27,9 C 4,6 C 81 % 92 % 100 % 1021,8 hPa 0,0 l/m 8,9 km/h
O-SO (2 Bft)
- - 14 min 0,1 UV-I 15,8 C 27,9 C 14,6 km/h
O-SO (3 Bft)
Durchschnitt _ 19,5 C 23,3 C 18,9 C 20,9 C 20,8 C 1,5 C 70 % 87 % 39 % 1019,5 hPa #0,0 l/m 3,5 km/h (1 Bft) O-NO - #5:06 h 0,1 UV-I 13,8 C 20,8 C 4,3 km/h (1 Bft)
2012 www.wetterstation-wechselburg.de